Location: Pasadena-CA
(34.1440°N, 118.1100°W)
Time: 00:19:22
(UTC-07:00)

Oscar 19 - Pass Details

Date: 02 July 2022
Orbit: 773 x 790 km, 98.8° (Epoch: 14 August)

Event Time Altitude Azimuth Distance (km) Brightness Sun altitude
Rises 02:59:18 0° 39° (NE) 3,252 15.2 -25.8°
Reaches altitude 10° 03:03:13 10° 69° (ENE) 2,319 13.8 -25.4°
Maximum altitude 03:05:11 12° 92° (E) 2,170 13.3 -25.2°
Drops below altitude 10° 03:07:09 10° 115° (ESE) 2,315 13.2 -25.0°
Enters shadow 03:09:16 - 134° (SE) 2,745 13.4 -24.7°
